QPF
0.00 0.00 0.00 0.00 0.00 0.00 0.00 0.00 0.00 0.00 0.00 0.00 0.00 0.00 0.00 0.00 0.00 0.00 0.00 0.00 0.00 0.00 0.00 0.00 0.00 0.00 0.00 0.00 0.00 0.00 0.00 0.00 0.00 0.00 0.00 0.00 0.00 0.00 0.00 0.00 0.00 0.00 0.00 0.00
0.00 0.00 0.00 0.00 0.00 0.00 0.00 0.00 0.00 0.00 0.00 0.00 0.00 0.00 0.00 0.00 0.00 0.00 0.00 0.00 0.00 0.00 0.00 0.00 0.00 0.00 0.00 0.00 0.00 0.00 0.00 0.00 0.00 0.00 0.00 0.00 0.00 0.00 0.00 0.00 0.00 0.00 0.00 0.00
0.00 0.00 0.00 0.00 0.00 0.00 0.00 0.00 0.00 0.00 0.00 0.00 0.00 0.00 0.00 0.00 0.00 0.00 0.00 0.00 0.00 0.00 0.00 0.00 0.00 0.00 0.00 0.00 0.00 0.00 0.00 0.00 0.00 0.00 0.00 0.00 0.00 0.00 0.00 0.00 0.00 0.00 0.00 0.00
0.00 0.00 0.00 0.00 0.00 0.00 0.00 0.00 0.00 0.00 0.00 0.00 0.00 0.00 0.00 0.00 0.00 0.00 0.00 0.00 0.00 0.00 0.00 0.00 0.00 0.00 0.00 0.00 0.00 0.00 0.00 0.00 0.00 0.00 0.00 0.00 0.00 0.00 0.00 0.00 0.00 0.00 0.00 0.00
0.00 0.00 0.00 0.00 0.00 0.00 0.00 0.00 0.00 0.00 0.00 0.00 0.00 0.00 0.00 0.00 0.00 0.00 0.00 0.00 0.00 0.00 0.00 0.00 0.00 0.00 0.00 0.00 0.00 0.00 0.00 0.00 0.00 0.00 0.00 0.00 0.00 0.00 0.00 0.00 0.00 0.00 0.00 0.00
0.00 0.00 0.00 0.00 0.00 0.00 0.00 0.00 0.00 0.00 0.00 0.00 0.00 0.00 0.00 0.00 0.00 0.00 0.00 0.00 0.00 0.00 0.00 0.00 0.00 0.00 0.00 0.00 0.00 0.00 0.00 0.00 0.00 0.00 0.00 0.00 0.00 0.00 0.00 0.00 0.00 0.00 0.00 0.00
0.00 0.00 0.00 0.00 0.00 0.00 0.00 0.00 0.00 0.00 0.00 0.00 0.00 0.00 0.00 0.00 0.00 0.00 0.00 0.00 0.00 0.00 0.00 0.00 0.00 0.00 0.00 0.00 0.00 0.00 0.00 0.00 0.00 0.00 0.00 0.00 0.00 0.00 0.00 0.00 0.00 0.00 0.00 0.00
0.00 0.00 0.00 0.00 0.00 0.00 0.00 0.00 0.00 0.00 0.00 0.00 0.00 0.00 0.00 0.00 0.00 0.00 0.00 0.00 0.00 0.00 0.00 0.00 0.00 0.00 0.00 0.00 0.00 0.00 0.00 0.00 0.00 0.00 0.00 0.00 0.00 0.00 0.00 0.00 0.00 0.00 0.00 0.00
0.00 0.00 0.00 0.00 0.00 0.00 0.00 0.00 0.00 0.00 0.00 0.00 0.00 0.00 0.00 0.00 0.00 0.00 0.00 0.00 0.00 0.00 0.00 0.00 0.00 0.00 0.00 0.00 0.00 0.00 0.00 0.00 0.00 0.00 0.00 0.00 0.00 0.00 0.00 0.00 0.00 0.00 0.00 0.00
0.00 0.00 0.00 0.00 0.00 0.00 0.00 0.00 0.00 0.00 0.00 0.00 0.00 0.00 0.00 0.00 0.00 0.00 0.00 0.00 0.00 0.00 0.00 0.00 0.00 0.00 0.00 0.00 0.00 0.00 0.00 0.00 0.00 0.00 0.00 0.00 0.00 0.00 0.00 0.00 0.00 0.00 0.00 0.00
0.00 0.00 0.00 0.00 0.00 0.00 0.00 0.00 0.00 0.00 0.00 0.00 0.00 0.00 0.00 0.00 0.00 0.00 0.00 0.00 0.00 0.00 0.00 0.00 0.00 0.00 0.00 0.00 0.00 0.00 0.00 0.00 0.00 0.00 0.00 0.00 0.00 0.00 0.00 0.00 0.00 0.00 0.00 0.00
0.00 0.00 0.00 0.00 0.00 0.00 0.00 0.00 0.00 0.00 0.00 0.00 0.00 0.00 0.00 0.00 0.00 0.00 0.00 0.00 0.00 0.00 0.00 0.00 0.00 0.00 0.00 0.00 0.00 0.00 0.00 0.00 0.00 0.00 0.00 0.00 0.00 0.00 0.00 0.00 0.00 0.00 0.00 0.00
0.00 0.00 0.00 0.00 0.00 0.00 0.00 0.00 0.00 0.00 0.00 0.00 0.00 0.00 0.00 0.00 0.00 0.00 0.00 0.00 0.00 0.00 0.00 0.00 0.00 0.00 0.00 0.00 0.00 0.00 0.00 0.00 0.00 0.00 0.00 0.00 0.00 0.00 0.00 0.00 0.00 0.00 0.00 0.00
0.00 0.00 0.00 0.00 0.00 0.00 0.00 0.00 0.00 0.00 0.00 0.00 0.00 0.00 0.00 0.00 0.00 0.00 0.00 0.00 0.00 0.00 0.00 0.00 0.00 0.00 0.00 0.00 0.00 0.00 0.00 0.00 0.00 0.00 0.00 0.00 0.00 0.00 0.00 0.00 0.00 0.00 0.00 0.00
0.00 0.00 0.00 0.00 0.00 0.00 0.00 0.00 0.00 0.00 0.00 0.00 0.00 0.00 0.00 0.00 0.00 0.00 0.00 0.00 0.00 0.00 0.00 0.00 0.00 0.00 0.00 0.00 0.00 0.00 0.00 0.00 0.00 0.00 0.00 0.00 0.00 0.00 0.00 0.00 0.00 0.00 0.00 0.00
0.00 0.00 0.00 0.00 0.00 0.00 0.00 0.00 0.00 0.00 0.00 0.00 0.00 0.00 0.00 0.00 0.00 0.00 0.00 0.00 0.00 0.00 0.00 0.00 0.00 0.00 0.00 0.00 0.00 0.00 0.00 0.00 0.00 0.00 0.00 0.00 0.00 0.00 0.00 0.00 0.00 0.00 0.00 0.00
0.00 0.00 0.00 0.00 0.00 0.00 0.00 0.00 0.00 0.00 0.00 0.00 0.00 0.00 0.00 0.00 0.00 0.00 0.00 0.00 0.00 0.00 0.00 0.00 0.00 0.00 0.00 0.00 0.00 0.00 0.00 0.00 0.00 0.00 0.00 0.00 0.00 0.00 0.00 0.00 0.00 0.00 0.00 0.00
0.00 0.00 0.00 0.00 0.00 0.00 0.00 0.00 0.00 0.00 0.00 0.00 0.00 0.00 0.00 0.00 0.00 0.00 0.00 0.00 0.00 0.00 0.00 0.00 0.00 0.00 0.00 0.00 0.00 0.00 0.00 0.00 0.00 0.00 0.00 0.00 0.00 0.00 0.00 0.00 0.00 0.00 0.00 0.00
0.00 0.00 0.00 0.00 0.00 0.00 0.00 0.00 0.00 0.00 0.00 0.00 0.00 0.00 0.00 0.00 0.00 0.00 0.00 0.00 0.00 0.00 0.00 0.00 0.00 0.00 0.00 0.00 0.00 0.00 0.00 0.00 0.00 0.00 0.00 0.00 0.00 0.00 0.00 0.00 0.00 0.00 0.00 0.00
0.00 0.00 0.00 0.00 0.00 0.00 0.00 0.00 0.00 0.00 0.00 0.00 0.00 0.00 0.00 0.00 0.00 0.00 0.00 0.00 0.00 0.00 0.00 0.00 0.00 0.00 0.00 0.00 0.00 0.00 0.00 0.00 0.00 0.00 0.00 0.00 0.00 0.00 0.00 0.00 0.00 0.00 0.00 0.00
0.00 0.00 0.00 0.00 0.00 0.00 0.00 0.00 0.00 0.00 0.00 0.00 0.00 0.00 0.00 0.00 0.02 0.00 0.00 0.00 0.00 0.00 0.00 0.00 0.00 0.00 0.00 0.00 0.00 0.00 0.00 0.00 0.00 0.00 0.00 0.00 0.00 0.00 0.00 0.00 0.00 0.00 0.00 0.00
0.00 0.00 0.00 0.00 0.00 0.00 0.00 0.00 0.00 0.00 0.00 0.00 0.00 0.00 0.00 0.00 0.00 0.00 0.00 0.00 0.00 0.00 0.00 0.00 0.00 0.00 0.00 0.00 0.00 0.00 0.00 0.00 0.00 0.00 0.00 0.00 0.00 0.00 0.00 0.00 0.00 0.00 0.00 0.00
0.00 0.00 0.00 0.00 0.00 0.00 0.00 0.00 0.00 0.00 0.00 0.00 0.00 0.00 0.00 0.00 0.00 0.00 0.00 0.00 0.00 0.00 0.00 0.00 0.00 0.00 0.00 0.00 0.00 0.00 0.00 0.00 0.00 0.00 0.00 0.00 0.00 0.00 0.00 0.00 0.00 0.00 0.00 0.00
0.00 0.00 0.00 0.00 0.00 0.00 0.00 0.00 0.00 0.00 0.00 0.00 0.00 0.00 0.00 0.00 0.00 0.00 0.00 0.00 0.00 0.00 0.00 0.00 0.00 0.00 0.00 0.00 0.00 0.00 0.00 0.00 0.00 0.00 0.00 0.00 0.00 0.00 0.00 0.00 0.00 0.00 0.00 0.00
0.00 0.00 0.00 0.00 0.00 0.00 0.00 0.00 0.00 0.00 0.00 0.00 0.00 0.00 0.00 0.00 0.00 0.00 0.00 0.00 0.00 0.00 0.00 0.00 0.00 0.00 0.00 0.00 0.00 0.00 0.00 0.00 0.00 0.00 0.00 0.00 0.00 0.00 0.00 0.00 0.00 0.00 0.00 0.00
0.00 0.00 0.00 0.00 0.01 0.02 0.01 0.00 0.00 0.00 0.00 0.00 0.00 0.00 0.00 0.00 0.00 0.00 0.00 0.00 0.00 0.00 0.00 0.00 0.00 0.00 0.00 0.00 0.00 0.00 0.00 0.00 0.00 0.00 0.00 0.00 0.00 0.00 0.00 0.00 0.00 0.00 0.00 0.00
MSLP
1014.93 1015.76 1016.67 1016.84 1016.85 1016.96 1017.13 1017.36 1017.41 1017.17 1017.03 1017.23 1017.21 1017.06 1016.55 1016.02 1015.96 1016.08 1016.62 1016.81 1017.04 1017.24 1017.18 1017.11 1016.98 1016.89 1017.20 1017.59 1017.86 1018.05 1018.27 1018.29 1018.40 1018.73 1019.04 1019.09 1019.03 1018.52 1018.24 1017.80 1017.43 1017.42 1017.39 1017.31
1015.84 1016.57 1016.69 1016.85 1016.96 1017.12 1017.20 1017.54 1017.86 1017.58 1017.45 1017.68 1017.43 1017.37 1016.92 1016.62 1016.87 1017.07 1017.18 1017.23 1017.12 1017.18 1017.25 1017.23 1017.27 1017.29 1017.44 1017.56 1017.88 1018.01 1018.12 1018.37 1018.56 1018.78 1018.93 1019.10 1019.10 1018.68 1018.39 1017.83 1017.48 1017.25 1017.03 1016.75
1016.53 1016.99 1016.78 1016.92 1017.38 1017.55 1017.60 1017.78 1018.08 1018.49 1018.09 1017.98 1017.96 1018.00 1017.50 1017.10 1017.06 1017.15 1017.27 1017.33 1017.34 1017.40 1017.42 1017.57 1017.62 1017.69 1017.79 1017.92 1018.22 1018.42 1018.42 1018.59 1018.79 1018.89 1018.91 1018.92 1018.89 1018.58 1018.29 1017.71 1017.32 1016.69 1016.53 1016.37
1017.13 1017.14 1017.16 1017.42 1017.67 1017.92 1018.00 1017.99 1018.43 1018.69 1019.07 1019.04 1018.80 1018.93 1018.15 1017.82 1017.49 1017.65 1017.65 1017.59 1017.58 1017.61 1017.68 1017.70 1017.81 1018.05 1018.15 1018.44 1018.52 1018.71 1018.82 1018.91 1018.81 1018.84 1019.00 1019.32 1019.35 1019.21 1018.30 1017.89 1017.36 1016.77 1016.27 1016.05
1018.02 1017.68 1017.76 1017.87 1018.06 1018.12 1018.22 1018.30 1018.60 1018.96 1019.54 1019.76 1019.87 1019.65 1018.85 1018.02 1017.79 1017.84 1017.76 1017.73 1017.78 1017.66 1017.80 1017.91 1018.02 1018.49 1018.88 1018.93 1019.18 1019.15 1018.95 1018.95 1018.92 1018.87 1018.92 1019.03 1019.10 1018.84 1018.25 1017.78 1017.37 1016.68 1016.05 1015.75
1018.55 1018.10 1018.16 1018.15 1018.04 1018.23 1018.42 1018.84 1019.44 1020.15 1020.65 1021.10 1021.01 1020.62 1019.62 1018.70 1018.36 1018.09 1017.95 1018.08 1018.24 1018.28 1018.48 1018.78 1019.02 1019.28 1019.65 1019.60 1019.57 1019.33 1019.12 1019.09 1018.97 1018.99 1019.04 1019.23 1019.19 1018.84 1018.09 1017.59 1017.27 1016.55 1015.94 1015.57
1019.58 1019.18 1018.77 1018.46 1018.54 1018.61 1019.09 1020.02 1021.07 1022.21 1022.46 1022.77 1021.56 1020.99 1019.57 1018.62 1018.32 1018.07 1018.21 1018.42 1018.76 1019.20 1019.40 1019.63 1019.82 1019.92 1019.91 1019.94 1019.93 1019.86 1019.86 1019.85 1019.73 1019.65 1019.24 1018.86 1018.48 1018.31 1018.06 1017.35 1016.82 1016.38 1016.03 1015.83
1021.04 1020.17 1019.59 1019.17 1019.38 1019.77 1020.29 1021.29 1022.83 1024.05 1024.96 1024.12 1022.21 1021.07 1019.68 1019.01 1018.72 1018.77 1019.05 1019.48 1019.73 1019.90 1019.83 1019.98 1020.16 1020.25 1020.34 1020.42 1020.31 1020.33 1020.29 1020.05 1019.74 1019.48 1019.23 1018.91 1018.64 1018.27 1017.74 1017.15 1016.53 1016.24 1016.13 1016.11
1021.62 1021.02 1020.15 1019.79 1019.84 1020.13 1020.70 1021.93 1023.03 1024.52 1026.13 1025.78 1023.34 1021.54 1019.97 1019.63 1019.75 1019.66 1019.93 1020.18 1020.48 1020.48 1020.41 1020.42 1020.41 1020.49 1020.49 1020.28 1020.24 1020.18 1020.08 1019.85 1019.67 1019.59 1019.24 1019.07 1018.48 1017.84 1017.12 1016.57 1016.13 1016.04 1016.08 1016.12
1021.93 1021.79 1021.00 1020.47 1020.27 1020.49 1020.99 1022.27 1023.37 1024.75 1026.43 1026.37 1024.36 1022.57 1021.28 1020.80 1020.61 1020.73 1020.93 1021.21 1021.21 1021.10 1020.99 1020.97 1020.78 1020.61 1020.46 1020.53 1020.53 1020.37 1020.03 1019.86 1019.54 1019.26 1018.78 1018.57 1018.26 1017.57 1016.79 1016.34 1016.00 1016.25 1016.22 1016.13
1022.18 1022.52 1021.97 1021.42 1021.61 1021.78 1022.05 1022.87 1024.13 1025.25 1026.35 1026.78 1025.77 1023.63 1021.60 1021.42 1021.10 1021.28 1021.53 1021.73 1021.73 1021.74 1021.50 1021.28 1020.88 1020.66 1020.51 1020.39 1020.09 1019.82 1019.67 1019.55 1019.36 1019.14 1018.92 1018.79 1018.29 1017.44 1016.70 1016.18 1015.96 1016.55 1016.70 1016.54
1022.94 1023.52 1023.47 1022.81 1022.36 1022.32 1022.73 1023.63 1024.57 1025.97 1026.95 1027.04 1026.38 1023.42 1021.52 1021.19 1021.21 1021.43 1021.79 1021.90 1021.89 1021.70 1021.36 1020.98 1020.67 1020.66 1020.68 1020.29 1019.94 1019.76 1019.52 1019.63 1019.61 1019.34 1018.93 1018.69 1018.28 1017.75 1017.02 1016.60 1016.32 1016.68 1016.95 1016.61
1023.25 1024.23 1024.55 1023.49 1023.37 1023.35 1023.58 1024.11 1024.76 1025.93 1026.66 1026.79 1026.33 1023.44 1021.54 1021.29 1021.32 1021.65 1021.91 1021.91 1021.89 1021.47 1021.13 1020.85 1020.47 1020.31 1020.35 1020.19 1019.93 1019.70 1019.66 1019.67 1019.44 1019.17 1019.17 1018.99 1018.50 1018.03 1017.73 1016.98 1016.84 1016.92 1016.73 1016.59
1023.51 1024.89 1025.47 1025.56 1024.98 1024.60 1024.56 1024.56 1024.93 1025.58 1026.28 1025.81 1024.60 1023.14 1021.70 1021.53 1021.49 1021.63 1021.75 1021.69 1021.55 1021.14 1020.92 1020.72 1020.61 1020.44 1020.37 1020.16 1019.93 1019.75 1019.65 1019.54 1019.48 1019.34 1019.15 1018.86 1018.86 1018.68 1018.29 1017.91 1017.23 1017.26 1017.24 1017.03
1024.53 1025.70 1026.08 1025.95 1025.43 1024.95 1024.34 1024.28 1024.60 1025.14 1024.87 1025.15 1023.31 1022.94 1021.71 1021.39 1021.55 1021.64 1021.61 1021.62 1021.31 1021.09 1020.94 1020.72 1020.58 1020.32 1020.15 1020.00 1019.72 1019.68 1019.75 1019.70 1019.44 1019.16 1018.92 1018.68 1018.57 1018.55 1018.26 1018.26 1017.84 1017.41 1017.42 1017.47
1025.55 1026.27 1026.71 1026.51 1025.99 1025.60 1024.66 1023.68 1023.72 1023.75 1023.74 1023.49 1022.86 1022.23 1021.14 1021.10 1021.51 1021.77 1021.55 1021.46 1021.31 1021.25 1021.31 1021.14 1020.73 1020.39 1020.09 1019.72 1019.92 1020.09 1019.88 1019.53 1019.30 1019.18 1019.01 1018.70 1018.38 1018.21 1018.47 1018.29 1018.04 1017.72 1017.46 1017.34
1026.52 1027.38 1028.00 1027.43 1026.84 1025.95 1024.28 1022.51 1022.58 1022.65 1022.49 1022.29 1022.17 1021.07 1020.94 1021.27 1021.59 1021.55 1021.15 1021.14 1021.18 1021.44 1021.32 1021.15 1020.82 1020.32 1020.22 1020.32 1020.06 1019.70 1019.70 1019.61 1019.50 1019.37 1019.43 1019.11 1018.76 1018.26 1018.28 1018.05 1017.90 1017.80 1017.68 1017.60
1026.98 1028.01 1028.52 1028.34 1027.41 1026.27 1022.76 1021.95 1021.64 1021.82 1021.66 1021.13 1021.27 1021.01 1021.29 1021.33 1021.25 1021.14 1020.92 1020.80 1021.41 1021.58 1021.32 1020.70 1020.31 1020.60 1020.54 1020.40 1020.31 1020.18 1019.90 1019.77 1019.71 1019.45 1019.04 1018.82 1018.69 1018.55 1018.38 1018.24 1018.16 1018.00 1017.82 1017.80
1026.93 1028.11 1028.71 1028.30 1027.17 1025.22 1022.82 1021.10 1021.05 1021.21 1021.08 1020.64 1020.95 1021.14 1021.07 1020.92 1020.78 1020.69 1020.73 1021.77 1022.17 1022.02 1021.75 1020.85 1020.50 1020.50 1020.38 1020.22 1020.19 1020.43 1019.96 1019.82 1019.73 1019.51 1019.04 1019.13 1019.13 1018.79 1018.58 1018.47 1018.45 1018.28 1018.19 1018.08
1027.99 1028.10 1028.40 1028.21 1027.10 1025.09 1022.02 1020.84 1020.73 1020.96 1021.01 1020.92 1021.15 1021.25 1021.45 1021.32 1021.45 1021.29 1021.83 1021.75 1021.63 1021.18 1020.82 1020.72 1020.41 1020.19 1020.23 1019.93 1019.82 1019.77 1019.87 1019.80 1019.83 1019.56 1019.35 1019.40 1019.29 1018.97 1018.83 1018.78 1018.66 1018.48 1018.43 1018.33
1028.09 1028.25 1027.88 1027.31 1026.33 1024.15 1021.36 1020.85 1020.81 1021.22 1021.43 1020.87 1021.12 1021.18 1021.38 1021.89 1022.31 1022.49 1022.66 1021.74 1020.76 1020.37 1020.14 1020.18 1020.21 1020.25 1019.97 1019.75 1019.54 1019.45 1019.38 1019.59 1019.54 1019.55 1019.63 1019.52 1019.32 1019.12 1018.96 1018.88 1018.77 1018.66 1018.54 1018.41
1027.02 1027.03 1026.78 1026.53 1025.65 1023.31 1021.20 1021.34 1021.56 1021.02 1020.42 1020.82 1020.81 1021.03 1021.64 1021.77 1022.22 1022.15 1021.44 1020.59 1020.22 1020.18 1020.03 1020.00 1020.17 1020.26 1019.83 1019.58 1019.62 1019.83 1020.02 1019.42 1019.25 1019.43 1019.58 1019.50 1019.31 1019.12 1019.00 1018.96 1018.76 1018.58 1018.54 1018.42
1026.03 1024.76 1024.67 1024.59 1023.20 1021.54 1021.04 1020.82 1020.77 1020.63 1020.85 1020.96 1021.11 1021.63 1022.15 1022.41 1022.25 1021.46 1021.21 1020.62 1020.11 1019.91 1019.87 1020.06 1020.08 1019.97 1019.74 1019.49 1019.34 1019.33 1018.78 1019.07 1019.24 1019.36 1019.43 1019.37 1019.18 1019.04 1018.96 1018.88 1018.66 1018.50 1018.38 1018.29
1024.43 1023.75 1023.75 1023.42 1021.63 1020.96 1020.49 1020.46 1021.03 1021.22 1021.58 1021.91 1022.27 1022.37 1022.34 1022.10 1021.68 1021.47 1021.02 1020.46 1020.04 1019.74 1019.76 1019.80 1019.86 1019.74 1019.55 1019.13 1019.02 1018.89 1018.75 1018.80 1019.06 1019.19 1019.23 1019.20 1019.15 1019.02 1018.84 1018.63 1018.45 1018.37 1018.24 1018.13
1023.57 1023.22 1022.44 1021.74 1020.80 1020.50 1020.59 1021.14 1021.47 1021.55 1021.64 1022.08 1022.38 1022.18 1021.88 1021.82 1021.69 1021.38 1020.98 1020.60 1020.29 1020.07 1019.71 1019.39 1019.50 1019.32 1019.12 1018.87 1018.64 1018.36 1018.47 1018.66 1018.92 1019.04 1019.10 1019.19 1019.15 1018.98 1018.71 1018.48 1018.39 1018.32 1018.11 1018.01
1022.46 1022.02 1021.79 1020.35 1020.25 1020.56 1020.60 1020.91 1021.33 1021.54 1021.98 1022.33 1022.28 1022.15 1021.94 1021.94 1021.68 1021.38 1020.96 1020.61 1020.18 1019.91 1019.70 1019.34 1019.11 1019.13 1018.89 1018.75 1018.53 1018.45 1018.44 1018.60 1018.82 1018.97 1019.13 1019.27 1019.22 1019.06 1018.92 1018.68 1018.42 1018.23 1018.05 1017.82
Thickness
5673 5655 5647 5658 5661 5660 5658 5650 5646 5652 5661 5655 5653 5649 5657 5663 5664 5663 5659 5655 5652 5652 5653 5652 5650 5647 5642 5636 5630 5624 5619 5614 5608 5602 5596 5591 5588 5587 5585 5582 5580 5574 5568 5565
5658 5650 5663 5660 5658 5657 5656 5648 5640 5646 5653 5652 5648 5649 5657 5659 5656 5652 5649 5648 5651 5651 5650 5647 5644 5641 5636 5631 5625 5619 5613 5606 5599 5592 5586 5581 5576 5574 5572 5571 5570 5566 5561 5557
5649 5657 5661 5658 5648 5645 5646 5647 5643 5638 5641 5649 5641 5644 5645 5657 5656 5651 5648 5649 5648 5645 5643 5639 5636 5633 5627 5623 5615 5610 5603 5596 5588 5582 5575 5570 5567 5564 5561 5559 5556 5555 5551 5547
5654 5656 5653 5647 5647 5645 5635 5648 5643 5636 5633 5625 5635 5620 5637 5636 5647 5640 5641 5638 5641 5639 5635 5633 5630 5625 5619 5611 5605 5598 5592 5585 5581 5575 5568 5560 5553 5548 5549 5545 5543 5541 5539 5536
5643 5647 5641 5638 5642 5645 5636 5641 5639 5640 5630 5628 5621 5612 5624 5629 5635 5633 5632 5632 5632 5631 5628 5627 5623 5613 5601 5596 5590 5584 5581 5577 5571 5565 5558 5550 5542 5536 5533 5531 5529 5529 5528 5523
5637 5646 5642 5640 5645 5644 5642 5635 5629 5622 5616 5601 5612 5606 5608 5616 5620 5622 5626 5626 5623 5622 5616 5609 5602 5594 5586 5582 5578 5573 5570 5564 5558 5550 5542 5532 5525 5523 5522 5520 5516 5516 5514 5511
5623 5628 5632 5637 5629 5635 5627 5613 5587 5589 5578 5584 5608 5600 5605 5620 5620 5621 5620 5618 5613 5602 5596 5593 5585 5579 5575 5569 5562 5558 5551 5545 5539 5532 5526 5520 5516 5510 5506 5506 5504 5500 5495 5490
5597 5597 5620 5628 5625 5619 5616 5604 5572 5576 5559 5571 5594 5596 5604 5617 5609 5608 5604 5597 5590 5585 5581 5576 5571 5564 5559 5553 5548 5541 5535 5529 5523 5517 5513 5508 5502 5497 5494 5491 5488 5481 5473 5465
5585 5599 5616 5622 5619 5618 5612 5589 5595 5566 5513 5540 5578 5597 5606 5601 5597 5597 5588 5582 5576 5573 5568 5565 5561 5554 5547 5542 5536 5528 5523 5519 5512 5505 5499 5492 5488 5485 5482 5476 5469 5462 5452 5442
5601 5592 5608 5612 5616 5613 5605 5598 5576 5556 5541 5550 5569 5581 5580 5582 5583 5580 5575 5570 5564 5561 5558 5554 5547 5543 5537 5529 5523 5516 5512 5505 5498 5491 5488 5482 5474 5470 5467 5460 5451 5438 5430 5422
5601 5592 5597 5604 5595 5591 5587 5575 5572 5566 5550 5531 5525 5558 5579 5574 5574 5568 5565 5559 5553 5548 5544 5540 5536 5531 5524 5518 5513 5507 5502 5494 5486 5478 5470 5462 5457 5453 5450 5441 5433 5416 5406 5399
5592 5574 5568 5590 5595 5592 5586 5577 5563 5531 5540 5522 5505 5544 5577 5570 5563 5559 5555 5548 5542 5538 5534 5531 5525 5518 5510 5507 5503 5495 5487 5477 5467 5460 5454 5446 5437 5431 5425 5420 5411 5397 5384 5377
5590 5564 5550 5574 5579 5578 5576 5572 5560 5534 5517 5529 5502 5544 5565 5560 5553 5550 5542 5536 5530 5528 5525 5521 5518 5512 5502 5495 5487 5479 5471 5461 5452 5444 5433 5424 5417 5410 5400 5395 5385 5373 5363 5354
5583 5563 5559 5545 5561 5563 5561 5562 5554 5544 5529 5527 5538 5547 5565 5557 5549 5542 5536 5529 5524 5520 5516 5511 5503 5496 5486 5479 5471 5463 5453 5444 5434 5425 5415 5406 5395 5384 5374 5366 5359 5347 5335 5328
5573 5562 5556 5556 5557 5557 5565 5559 5551 5535 5538 5530 5549 5538 5549 5545 5538 5531 5528 5520 5518 5516 5506 5498 5490 5484 5475 5467 5458 5447 5435 5426 5417 5410 5399 5389 5380 5366 5354 5342 5333 5324 5313 5305
5557 5541 5550 5547 5544 5539 5544 5553 5544 5542 5541 5534 5536 5534 5545 5540 5531 5521 5520 5514 5508 5496 5487 5479 5474 5465 5460 5453 5441 5429 5419 5409 5401 5390 5380 5371 5360 5348 5333 5319 5310 5302 5299 5295
5550 5516 5510 5519 5522 5515 5536 5555 5543 5545 5542 5541 5533 5544 5539 5533 5519 5516 5514 5500 5492 5478 5472 5463 5459 5454 5443 5431 5421 5413 5403 5393 5383 5373 5357 5346 5337 5327 5312 5303 5297 5291 5286 5281
5517 5502 5492 5492 5515 5516 5560 5559 5548 5540 5539 5543 5530 5526 5523 5517 5509 5502 5493 5487 5471 5462 5456 5451 5444 5431 5416 5407 5400 5390 5382 5375 5363 5350 5340 5328 5317 5304 5294 5288 5282 5276 5271 5266
5523 5503 5498 5513 5511 5515 5551 5552 5548 5535 5531 5538 5527 5521 5513 5505 5495 5494 5477 5462 5450 5439 5433 5431 5422 5411 5402 5392 5382 5371 5364 5355 5344 5332 5323 5308 5294 5287 5282 5275 5268 5262 5257 5252
5505 5485 5481 5488 5496 5505 5538 5538 5534 5526 5506 5518 5515 5507 5500 5486 5478 5488 5458 5447 5439 5434 5426 5416 5407 5399 5388 5380 5369 5359 5346 5335 5322 5314 5303 5288 5280 5276 5269 5262 5256 5250 5243 5238
5482 5485 5506 5503 5490 5497 5525 5523 5523 5502 5506 5511 5501 5497 5483 5469 5456 5441 5433 5434 5432 5426 5417 5405 5394 5381 5374 5367 5357 5344 5330 5319 5307 5295 5283 5275 5270 5264 5257 5249 5243 5236 5229 5222
5502 5479 5465 5471 5477 5485 5518 5516 5507 5507 5510 5501 5493 5479 5466 5453 5441 5433 5432 5431 5423 5411 5401 5390 5378 5367 5359 5349 5337 5323 5305 5298 5292 5282 5273 5265 5259 5253 5246 5237 5230 5222 5213 5204
5497 5509 5502 5500 5492 5514 5516 5511 5506 5502 5492 5483 5475 5459 5445 5435 5428 5428 5421 5414 5409 5397 5386 5373 5361 5352 5343 5332 5323 5310 5303 5290 5281 5273 5264 5256 5250 5243 5234 5226 5217 5208 5199 5190
5511 5510 5496 5495 5514 5512 5513 5507 5493 5480 5470 5457 5448 5437 5433 5428 5420 5412 5405 5400 5393 5382 5369 5358 5347 5337 5327 5319 5308 5298 5290 5281 5273 5266 5258 5250 5241 5233 5223 5214 5206 5198 5188 5181
5502 5498 5495 5494 5511 5505 5496 5478 5470 5462 5455 5445 5436 5431 5425 5415 5405 5397 5391 5381 5372 5363 5355 5347 5334 5325 5316 5308 5299 5292 5283 5275 5267 5260 5252 5243 5233 5224 5216 5207 5198 5190 5182 5173
5496 5492 5480 5502 5500 5487 5483 5468 5458 5450 5441 5432 5424 5415 5407 5395 5387 5380 5375 5365 5356 5349 5342 5335 5326 5313 5306 5298 5290 5282 5276 5268 5261 5254 5244 5231 5222 5213 5207 5200 5193 5184 5177 5170